Location: Sinnemahoning State Park
(41.4031°N, 78.0230°W)
Time: 22:40:37
(UTC-05:00)

Daily predictions for brighter satellites

Satellite Brightness Start Highest point End
(mag) Time Altitude Azimuth Time Altitude Azimuth Time Altitude Azimuth
USA 215 3.9 17:37:16 10° E 17:43:11 38° NNE 17:49:07 10° NW
Cosmos 2237 Rocket 2.4 17:37:48 10° S 17:43:13 53° ESE 17:48:42 10° NNE
Cosmos 44 Rocket 3.5 17:38:24 10° SSW 17:43:33 86° WNW 17:48:37 10° NNE
NOSS 0 Rocket 4.0 17:39:06 10° SSW 17:45:16 67° ESE 17:51:26 10° NNE
COSMOS 2428 3.7 17:42:31 10° SW 17:48:02 49° WNW 17:53:35 10° NNE
BREEZE-M DEB (TANK) 3.5 17:39:34 10° NW 17:48:34 66° SW 17:51:47 10° SE
Cosmos 1300 2.9 17:46:20 10° N 17:50:04 48° E 17:53:47 10° SSE
SL-16 R/B 3.2 17:45:48 10° SSE 17:50:20 25° ESE 17:54:53 10° NE
Cosmos 1340 Rocket 3.8 17:47:26 10° SSE 17:50:42 25° E 17:53:58 10° NE
Cosmos 1634 Rocket 4.0 17:45:26 10° N 17:51:38 73° E 17:57:46 10° SSE
SL-14 R/B 3.6 17:48:09 10° SSE 17:51:54 46° E 17:55:43 10° NNE
Abrixas 2.6 17:50:10 10° SW 17:53:03 59° SSE 17:55:48 11° ENE
Cosmos 1461 4.2 17:50:34 10° SSE 17:53:52 23° ESE 17:57:06 10° ENE
Cosmos 2058 3.4 17:50:50 10° SSE 17:54:36 37° E 17:58:23 10° NNE
Cosmos 1484 Rocket 2.9 17:51:40 10° SSE 17:55:29 53° ENE 17:59:24 10° N
CZ-4 R/B 4.4 17:55:15 10° SSE 17:59:23 87° ENE 18:03:33 10° NNW
Cosmos 304 Rocket 4.5 17:57:00 10° SSE 18:01:18 34° ESE 18:05:37 10° NE
Cosmos 2297 4.2 17:56:03 10° N 18:01:20 37° ENE 18:06:36 10° SE
Lacrosse 5 4.0 18:04:01 10° NW 18:06:52 15° N 18:09:43 10° NNE
Cosmos 1844 Rocket 4.2 18:03:05 10° NW 18:08:22 41° WSW 18:13:36 10° S
Meteor 1-28 Rocket 3.5 18:11:30 10° NNE 18:15:05 44° E 18:18:39 10° S
OTV 4 3.1 18:13:38 10° WSW 18:15:43 17° SSW 18:17:46 10° SSE
Cosmos 1125 Rocket 3.8 18:10:58 10° NNW 18:16:10 71° WSW 18:21:19 10° S
Cosmos 1356 Rocket 4.3 18:12:57 10° SSE 18:16:19 27° E 18:19:09 13° NE
Transit 2A Rocket 4.4 18:12:10 10° NNW 18:16:30 76° ENE 18:20:48 10° SE
Meteor 2-10 3.9 18:12:13 10° N 18:17:19 69° E 18:22:33 10° SSE
CZ-2C R/B 4.1 18:13:09 10° SSW 18:17:45 37° W 18:22:15 10° NNW
CENTAUR R/B 3.9 18:12:24 10° WSW 18:18:03 34° NW 18:24:22 10° NNE
YAOGAN 1 4.0 18:15:07 10° S 18:19:13 42° W 18:23:21 10° NNW
Cosmos 1707 Rocket 4.1 18:15:33 10° N 18:19:33 35° ENE 18:23:31 10° SE
COSMO-SKYMED 1 2.5 18:15:16 10° NNE 18:19:38 78° ESE 18:23:57 10° S
Thor Agena Rocket 4.4 18:19:06 10° N 18:24:12 52° WNW 18:29:11 10° SW
Resurs 01 Rocket 2.8 18:26:17 19° E 18:27:38 22° ENE 18:31:03 10° NNE
FENGYUN 3A 4.4 18:23:49 10° ESE 18:28:18 28° ENE 18:32:48 10° N
Lacrosse 5 rocket 1.2 18:25:54 10° NW 18:29:43 79° SW 18:33:42 10° SE
Meteor 1-11 4.3 18:24:20 10° S 18:30:01 89° WNW 18:35:49 10° N
Cosmos 1666 Rocket 4.0 18:26:09 10° SSE 18:30:10 38° E 18:34:14 10° NNE
Cosmos 1980 4.3 18:25:52 10° SW 18:31:28 59° WNW 18:37:06 10° NNE
Timation 1 Rocket 4.3 18:26:42 10° NNW 18:32:44 73° ENE 18:38:43 10° SSE
METEOR-M 4.2 18:28:10 10° SSE 18:33:23 57° ENE 18:38:37 10° N
Cosmos 1184 Rocket 3.8 18:30:38 10° SSE 18:33:17 27° ESE 18:33:17 27° ESE
Cosmos 1538 Rocket 4.2 18:31:12 10° S 18:36:17 51° ESE 18:40:44 14° NNE
Cosmos 2151 3.9 18:32:32 10° SSW 18:36:37 50° W 18:40:43 10° N
Iridium 4 Rocket 3.9 18:35:39 10° SE 18:39:31 28° E 18:39:48 28° ENE
Cosmos 2279 Rocket 4.1 18:34:07 10° N 18:40:20 81° W 18:46:34 10° S
ATLAS 5 CENTAUR R/B 4.3 18:39:57 10° N 18:41:14 11° NNE 18:41:50 11° NNE
Cosmos 44 4.5 18:39:05 10° WSW 18:44:05 43° NW 18:48:47 10° NNE
ALOS 2.7 18:42:22 10° SE 18:46:38 37° ENE 18:50:57 10° N
NOAA 12 4.0 18:44:16 10° SSE 18:49:30 85° ENE 18:54:48 10° NNW
Cosmos 2333 Rocket 3.6 18:45:44 10° WSW 18:50:53 35° WNW 18:56:03 10° N
Cosmos 2219 Rocket 4.0 18:47:28 10° WSW 18:52:15 28° NW 18:57:03 10° N
Cosmos 1626 2.0 18:50:31 10° S 18:54:15 85° E 18:56:51 19° N
Cosmos 1603 4.4 18:49:54 10° SSE 18:54:46 31° ESE 18:55:01 31° E
SJ-6B 2.8 18:54:26 10° SSE 18:58:30 87° E 19:02:40 10° NNW
Nadezhda 4 Rocket 3.9 18:53:57 10° S 19:00:10 76° E 19:06:30 10° N
Aureole 2 Rocket 4.3 18:57:04 10° SW 19:00:31 33° WNW 19:04:14 10° N
Cosmos 2242 Rocket 3.6 18:56:20 10° N 19:00:39 51° E 19:04:58 10° SSE
Cosmos 1703 3.9 18:58:49 10° SSW 19:02:38 56° W 19:06:29 10° N
Cosmos 2278 Rocket 3.9 18:57:39 10° NW 19:02:44 34° WSW 19:07:45 10° SSW
Cosmos 1455 2.1 19:02:28 10° N 19:06:17 89° W 19:10:06 10° S
Cosmos 1805 Rocket 4.4 19:04:20 10° SSW 19:08:40 52° W 19:13:03 10° N
SL-19 R/B 4.2 19:07:09 10° SSE 19:13:04 81° ENE 19:18:42 10° NNW
Lacrosse 4 Rocket 2.6 19:09:54 10° NNW 19:12:09 29° N 19:12:09 29° N
Cosmos 773 Rocket 3.8 19:12:25 10° SSW 19:17:34 80° ESE 19:19:20 42° NNE
FREGAT/IRIS 3.9 19:15:50 10° S 19:18:43 41° W 19:21:39 10° NNW
Cosmos 1092 Rocket 3.9 19:14:13 10° S 19:20:31 79° E 19:26:54 10° N
USA 215 3.3 19:21:35 24° SE 19:25:50 80° SW 19:32:25 10° NW
Sich 1 3.8 19:21:43 10° SSW 19:26:03 52° W 19:29:41 14° N
Cosmos 2237 Rocket 4.2 19:23:04 10° WSW 19:27:36 24° NW 19:32:09 10° N
Cosmos 2369 Rocket 3.8 19:27:11 10° N 19:29:27 21° N 19:29:27 21° N
Cosmos 1461 4.2 19:29:02 10° WSW 19:32:51 34° NW 19:33:37 31° NNW
Cosmos 1633 Rocket 3.9 19:29:16 10° SSW 19:33:32 49° W 19:36:07 22° NNW
SL-16 R/B 3.1 19:28:44 10° SW 19:34:08 46° WNW 19:37:58 19° N
Cosmos 2195 Rocket 4.3 19:39:39 10° S 19:45:45 81° E 19:46:13 75° NE
Lacrosse 5 4.2 19:48:43 10° NNW 19:50:07 14° N 19:50:07 14° N
CZ-3A R/B 3.5 19:55:25 10° WNW 19:59:52 55° SW 20:01:31 41° S
Resurs 01 Rocket 3.1 20:03:49 35° W 20:03:53 35° W 20:07:59 10° NNW
CZ-4C R/B 4.4 20:00:09 10° NNW 20:02:59 20° N 20:02:59 20° N
USA 229 DEB 4.0 20:04:35 10° SW 20:11:22 62° NW 20:12:13 58° NNW
USA 229 4.0 20:04:40 10° SW 20:11:28 63° NW 20:12:16 58° NNW
ATLAS 5 CENTAUR R/B 4.5 20:22:19 10° NNW 20:23:24 15° NNW 20:23:24 15° NNW
